Погода в Винницах

Россия / Санкт-Петербург и Ленинградская область     60°37′41″N   34°46′24″E
темп.,
°C
ветер,
м/с
пор.,
м/с
влажн.,
%
обл.,
%
осадки,
мм/ч
давл.,
гПа
погр.,
м
8 марта, пн
пн800:00−9ссв51292100 0.5 995744
03:00−11ссв61293100 0.9 999742
06:00−13ссв51293100 0.3 1002620
09:00−15ссв51294100 0.4 1005542
12:00−14с4894100 0.1 1008480
15:00−14с4794100 0.1 1011483
18:00−17с3896100 0.1 1013407
21:00−20с3899100 0.1 1015258
9 марта, вт
вт900:00−22с27100100 0.1 1017160
03:00−26ссв25100100 0.1 1019112
06:00−28ссв22100100 0.0 102029
09:00−27ссв26100100 0.0 1022224
12:00−22ссв2596100 0.0 1023364
15:00−19ссв259194 0.0 1024462
18:00−22ссв229772 0.0 102534
21:00−26св229941 0.0 102819
10 марта, ср
ср1000:00−28св11990 0.0 102919
03:00−27зюз11940 0.0 102919
06:00−26з228814 0.0 103020
09:00−22зсз258651 0.0 1030149
12:00−16зсз248689 0.0 1030257
15:00−12сз249059 0.0 1030412
18:00−14з229657 0.0 103022
21:00−18зсз129829 0.0 103120
11 марта, чт
чт1100:00−20зюз11960 0.0 103120
03:00−21юз12920 0.0 103120
06:00−21ююз22930 0.0 103120
09:00−17ю24920 0.0 1030127
12:00−10ююз37870 0.0 1028425
15:00−7ююз49800 0.0 1026923
18:00−9ю411840 0.0 1023623
21:00−11ююз4138819 0.0 1022495
12 марта, пт
пт1200:00−11ююз4129060 0.0 1021428
03:00−12ююз4119369 0.0 1020333
06:00−13ю4129365 0.0 1018309
09:00−11ю5158641 0.0 1017454
12:00−6ю613820 0.0 1015591
15:00−4ю612830 0.0 1013780
18:00−5ю615830 0.0 1011807
21:00−7ю6168611 0.0 1011810